GFSNGP_2pvu_pres_024.txt.gz
Presure
188 196 189 185 194 195 194 193 194 197 198 196 203 204 202 198 201 208 210 211 221 234 234 220 205 189 189 183 188 198 207 219 214 218 223 217 240 242 245 244 241 255 274 339
191 189 192 192 194 192 191 196 199 201 208 206 201 198 197 202 210 202 201 225 217 243 206 201 190 190 184 184 193 208 203 215 219 218 215 227 244 251 255 248 290 278 372 454
194 189 187 191 195 198 202 205 203 205 201 198 196 196 198 201 204 204 217 212 204 203 200 197 199 194 208 203 212 203 211 220 222 222 225 245 253 239 244 276 294 378 458 450
190 190 189 203 207 206 201 197 206 199 194 193 192 203 211 210 204 211 208 192 193 195 195 189 187 210 201 215 202 211 214 219 220 224 240 251 239 232 278 308 334 464 446 425
190 192 197 196 196 197 201 207 199 190 192 195 196 197 203 210 208 213 180 196 196 198 191 189 203 204 218 205 204 216 221 212 234 244 251 246 229 282 281 327 468 450 427 396
199 195 192 192 195 191 209 185 183 190 194 199 199 198 203 212 219 179 209 192 188 200 190 206 207 211 202 209 217 216 220 237 246 253 251 228 281 280 332 412 452 432 407 377
198 194 152 194 196 202 190 182 199 198 191 201 196 200 204 219 201 203 208 182 200 192 202 206 205 205 212 216 221 224 238 227 258 210 235 259 332 333 393 448 437 420 389 365
189 193 191 197 203 191 189 195 197 161 191 198 197 202 192 207 205 201 193 197 199 203 203 206 201 212 216 222 225 239 247 258 227 254 246 261 338 454 446 434 426 404 375 359
195 199 198 192 193 188 192 193 190 190 198 199 205 190 213 222 189 199 188 200 202 204 201 210 213 218 223 230 237 210 240 244 254 250 297 317 319 440 443 429 417 389 363 348
197 197 191 190 193 194 189 188 191 196 205 199 196 209 220 193 195 195 201 203 209 202 215 213 218 225 232 237 249 244 236 251 285 292 292 318 336 434 423 425 407 375 354 340
88 152 190 189 188 194 195 194 200 210 210 218 211 206 203 191 193 201 208 210 208 218 217 218 227 235 246 249 239 235 254 290 262 294 322 327 416 411 433 420 394 363 346 335
177 189 187 189 193 199 199 203 209 208 224 228 230 194 197 198 204 212 211 211 221 224 224 227 240 252 248 241 244 253 298 277 295 320 343 413 424 417 431 412 377 355 339 322
196 195 197 197 193 199 210 212 207 225 225 201 195 202 205 207 213 212 212 223 224 220 235 252 259 246 259 247 271 285 272 266 317 335 395 438 431 435 422 400 363 350 331 326
194 199 205 210 211 212 207 225 232 199 202 202 201 207 210 212 213 216 224 224 228 240 262 239 246 255 277 286 276 260 284 320 309 407 380 446 445 429 411 376 354 344 323 331
203 205 200 211 222 229 228 210 201 203 201 211 211 211 213 213 220 225 227 232 243 256 235 248 235 243 255 259 266 293 339 307 344 321 366 449 431 417 394 360 346 334 323 343
220 226 234 233 221 203 202 204 203 211 209 213 216 215 218 226 229 226 232 252 233 250 248 214 252 273 280 276 312 309 306 337 339 367 430 432 415 405 375 350 344 329 333 313
208 204 200 203 206 202 205 211 213 215 221 221 216 227 228 224 232 249 261 257 248 188 251 275 277 270 266 317 307 308 336 372 371 357 428 413 411 393 362 346 342 323 332 315
206 202 201 205 212 217 216 215 220 222 221 218 232 227 239 251 258 256 255 245 223 237 271 269 256 309 310 308 316 338 305 362 356 433 415 411 410 383 357 344 338 322 316 313
208 215 218 217 220 220 225 229 230 227 236 235 239 249 257 268 237 250 250 250 243 282 262 315 310 309 309 323 352 306 365 351 344 421 408 416 403 377 354 342 331 327 316 311
212 214 226 226 225 228 225 227 231 239 243 257 264 247 255 240 238 270 290 287 275 296 317 318 317 327 339 422 325 377 360 341 332 413 396 407 400 378 355 341 329 325 316 312
227 227 230 238 240 244 247 241 255 265 236 249 239 235 243 247 308 286 283 266 319 317 322 328 326 410 328 362 385 361 351 333 320 347 392 381 404 383 360 339 329 319 297 312
234 242 245 247 251 262 270 259 264 243 234 282 299 300 282 276 276 330 323 332 326 331 314 342 362 390 411 362 372 353 339 325 317 345 381 375 384 395 366 339 330 318 314 313
258 263 263 267 250 235 250 253 233 265 293 287 265 261 310 338 345 334 332 319 316 357 374 401 398 407 362 373 355 342 325 319 312 360 338 381 377 390 361 352 329 324 311 302
241 255 251 247 251 273 304 296 290 294 278 279 362 310 332 329 318 324 379 381 382 366 355 396 382 387 372 360 347 331 322 309 312 352 350 333 372 367 333 329 334 327 316 295
279 283 288 293 272 270 265 279 278 300 339 329 320 324 339 375 392 413 406 401 397 394 379 370 370 383 365 351 341 328 316 306 306 285 357 341 332 370 336 331 320 320 317 299
274 277 258 274 280 302 325 330 329 331 354 379 389 376 387 384 404 396 396 389 382 373 366 367 375 375 362 348 336 326 314 306 304 303 324 354 334 327 335 325 317 318 318 317
323 320 329 336 290 331 349 366 374 377 398 411 405 399 393 391 386 383 380 377 367 370 377 363 370 366 359 350 339 325 312 308 301 301 317 334 350 327 325 331 324 318 317 316

GFSNGP_2pvu_pres_027.txt.gz
Presure
201 195 193 190 196 192 186 196 196 193 198 200 206 205 199 200 198 194 203 207 209 212 220 223 209 187 196 198 190 191 183 196 213 208 219 223 229 239 242 247 226 233 260 277
193 190 194 194 197 196 196 196 201 204 207 203 207 199 196 194 195 192 194 208 205 204 228 196 200 210 191 194 191 190 197 213 214 216 219 219 233 198 249 241 230 257 268 269
195 196 192 193 193 191 193 203 211 195 206 200 203 194 189 188 192 202 201 203 201 203 190 205 205 194 198 198 195 206 205 214 212 202 228 234 230 250 241 236 256 313 275 328
193 191 182 188 192 195 192 199 194 193 203 201 188 181 198 199 196 198 204 204 197 193 213 205 192 193 187 199 209 210 216 215 207 225 237 244 255 246 236 267 292 274 336 351
189 189 187 187 192 202 195 188 201 197 202 195 180 195 195 192 188 200 199 201 191 214 221 197 194 192 201 210 212 214 216 203 228 239 252 243 256 279 227 285 268 331 378 431
193 192 190 190 191 198 193 191 196 198 198 194 195 161 188 190 192 201 208 211 211 201 192 195 195 196 210 211 205 218 216 226 239 253 201 255 256 291 269 269 279 319 429 432
196 196 188 193 197 196 191 196 195 187 195 190 194 185 190 192 201 202 205 216 220 197 196 199 197 209 210 210 214 218 225 238 248 229 248 233 261 268 282 279 323 330 435 430
202 199 194 198 200 190 198 195 193 188 190 189 191 194 194 196 206 203 215 226 199 193 198 202 207 211 208 217 222 226 234 251 238 241 247 249 267 277 275 313 346 385 436 431
210 207 209 209 199 160 192 185 187 184 186 193 194 190 197 202 204 220 209 197 197 196 201 206 212 209 216 226 226 239 248 256 224 221 285 280 287 266 311 350 376 376 439 422
89 107 187 181 190 179 189 186 187 193 194 186 198 201 200 214 222 193 198 201 197 205 211 213 211 223 227 225 246 260 255 213 244 256 269 270 262 321 347 354 376 448 433 407
194 157 197 187 188 192 195 197 190 192 200 200 199 211 225 232 192 200 202 201 206 214 217 215 226 229 234 252 253 225 212 261 245 252 274 260 320 347 335 386 367 441 424 385
189 179 199 194 191 195 198 197 197 200 199 213 225 223 195 200 203 201 205 214 221 221 216 226 230 237 257 248 257 216 249 280 257 263 261 320 325 358 345 370 446 431 403 368
202 190 198 200 192 191 197 202 201 212 230 204 200 198 204 200 205 216 217 217 228 226 227 233 239 261 258 246 234 251 252 283 285 268 333 333 354 320 370 400 435 418 380 357
200 192 190 195 199 203 209 217 232 201 203 204 204 201 206 216 215 216 225 227 224 233 238 254 250 247 242 251 250 272 285 277 277 344 335 340 340 372 360 427 424 405 366 352
199 206 207 208 210 215 222 204 207 203 200 205 205 215 215 216 223 226 232 233 240 242 252 237 248 254 251 278 294 278 279 264 353 321 329 392 373 361 350 422 418 391 361 347
206 204 203 213 221 204 208 210 201 203 212 211 215 221 227 229 239 239 244 242 249 250 259 242 242 258 255 281 278 267 340 340 317 332 407 361 363 354 341 422 413 385 356 345
215 216 220 205 202 203 205 206 208 214 215 227 227 237 228 238 243 245 255 259 260 250 234 253 240 275 281 266 347 338 327 319 344 426 366 373 357 345 333 415 408 384 355 343
221 204 205 205 203 206 211 219 217 226 231 233 236 240 247 247 249 258 256 236 249 251 249 245 261 261 287 341 327 321 330 384 374 402 382 342 350 335 329 391 406 387 361 341
209 203 202 207 218 217 219 232 235 235 233 241 242 247 253 269 258 244 247 241 268 280 280 281 291 335 326 325 338 367 409 373 412 386 369 352 341 328 329 365 389 393 370 343
209 215 217 215 225 232 226 233 238 239 251 242 253 258 252 250 258 251 258 255 254 252 249 327 327 331 356 370 394 359 398 376 392 374 358 341 330 320 324 349 373 395 383 351
220 225 232 237 241 239 241 243 249 245 252 260 243 238 242 279 286 270 256 338 342 327 324 328 372 386 394 368 405 388 389 378 377 363 350 337 325 314 313 327 347 373 340 371
240 239 241 237 242 255 244 251 267 256 249 246 254 295 285 285 331 340 331 330 330 343 366 375 385 414 403 404 386 373 371 358 372 359 346 334 321 311 306 335 342 336 368 330
245 253 246 246 238 248 256 250 248 282 300 307 297 325 346 343 337 344 361 375 380 392 407 401 396 391 384 388 371 363 368 370 365 356 345 334 321 311 304 305 350 337 332 331
251 247 254 279 257 250 270 283 284 278 321 354 349 351 367 380 379 372 374 409 403 389 377 375 387 389 384 373 366 371 369 373 365 356 346 335 326 312 306 297 310 345 333 325
262 278 268 257 285 305 284 334 335 340 359 362 363 358 366 366 388 406 405 397 385 382 382 378 371 365 364 373 388 377 367 363 361 355 352 340 328 318 305 304 297 315 339 329
256 265 240 301 337 370 369 372 373 362 369 380 369 371 371 399 394 391 385 382 388 389 393 400 399 404 385 364 361 362 360 354 352 353 350 348 333 321 309 303 304 304 320 338
306 342 379 383 374 368 369 372 371 363 359 367 367 401 396 385 386 409 411 396 384 375 366 356 349 346 346 343 340 338 339 342 343 344 344 339 333 325 309 308 309 308 315 327

GFSNGP_2pvu_pres_030.txt.gz
Presure
203 200 197 198 196 192 198 196 193 187 184 192 195 200 206 199 204 201 195 189 196 197 187 191 205 204 193 211 225 204 194 202 195 187 204 208 221 227 228 243 223 259 240 249
196 194 194 195 194 187 190 189 191 191 200 209 211 191 203 205 211 195 178 195 197 190 187 200 202 199 216 226 200 197 197 198 200 205 209 215 226 227 248 257 261 249 233 267
199 194 194 193 195 194 196 194 191 194 197 200 188 206 195 203 193 191 190 194 192 189 196 202 204 204 223 202 199 195 194 202 205 212 215 227 226 246 258 247 260 268 246 256
200 197 192 197 195 191 190 189 197 197 194 198 196 202 198 196 194 193 192 189 195 198 197 202 208 219 211 202 200 198 200 207 213 214 226 229 243 258 242 240 257 285 283 273
199 195 190 185 190 195 195 192 196 191 199 199 191 203 185 193 121 191 182 192 193 200 196 208 219 223 195 196 203 198 203 218 217 222 228 237 220 252 235 242 267 288 281 291
193 195 193 192 194 193 195 195 190 198 197 200 203 198 187 190 182 193 192 195 197 192 205 220 226 193 201 203 204 210 220 225 223 222 238 252 246 239 230 268 280 288 275 302
194 192 194 197 198 199 195 195 192 191 200 198 193 186 189 191 190 193 197 191 197 209 224 211 195 200 202 205 216 216 228 224 225 235 254 227 247 223 260 305 287 276 272 354
203 203 204 204 200 199 201 201 201 202 195 203 181 186 194 190 194 195 193 200 215 228 200 194 203 203 209 214 221 226 224 232 238 249 199 244 249 260 298 286 270 319 339 352
209 208 145 197 85 213 215 212 209 209 192 185 191 196 191 194 195 194 207 229 199 200 199 203 205 207 216 222 225 230 229 243 268 251 239 253 249 262 284 266 333 337 379 389
199 196 155 202 205 201 190 194 194 197 197 194 192 190 192 193 202 220 201 198 200 203 203 209 212 221 224 226 235 236 258 253 253 237 234 253 254 279 311 361 332 336 411 370
193 198 205 168 193 197 198 203 196 199 190 191 196 194 202 208 226 199 207 202 202 209 208 217 227 228 227 241 247 254 223 244 250 252 258 291 288 269 310 331 335 370 381 360
198 134 197 191 185 203 199 200 194 190 197 199 204 202 211 203 200 206 204 205 217 214 224 228 230 240 244 241 255 197 250 241 241 266 278 276 281 346 325 344 403 387 368 349
203 199 192 205 196 193 202 191 198 200 199 200 203 218 203 202 203 207 206 214 220 230 234 238 245 242 231 265 240 248 258 248 254 268 252 257 307 338 351 396 387 377 359 340
201 198 204 211 210 197 192 200 207 208 207 217 229 203 204 204 206 215 217 230 237 237 235 241 238 260 246 247 249 251 265 287 280 264 321 329 346 358 400 374 388 365 350 331
204 203 205 207 193 203 207 212 211 216 217 205 208 205 207 213 218 224 238 236 240 239 241 252 253 240 247 250 255 260 290 245 285 336 321 353 365 407 372 393 370 358 339 326
209 203 202 207 206 205 216 216 213 209 211 210 212 212 218 221 238 239 241 242 242 239 265 246 247 248 262 264 279 289 295 323 327 334 354 370 376 405 399 378 360 345 331 352
202 206 197 206 214 215 230 204 210 210 215 213 215 225 235 240 240 239 252 236 262 238 248 262 263 266 277 271 264 320 332 336 352 367 409 371 404 385 386 364 347 335 326 354
208 210 214 218 237 214 212 204 214 215 210 226 234 241 242 245 247 246 241 256 255 249 251 289 299 283 317 340 342 354 365 378 379 390 410 388 383 385 372 354 339 330 321 314
223 237 224 207 208 206 214 215 215 222 237 236 241 239 247 245 245 261 253 256 251 263 263 244 311 322 360 369 376 379 382 401 407 393 393 388 368 360 359 349 337 325 315 312
213 204 209 215 215 215 215 229 237 238 244 244 247 248 259 246 247 260 273 281 359 266 362 318 378 372 369 376 395 411 387 374 376 381 373 371 364 372 359 347 337 323 312 308
204 215 213 215 225 234 239 241 247 248 231 263 249 258 252 250 260 264 268 369 374 368 371 379 386 402 408 405 394 377 374 376 379 377 366 369 368 351 354 344 335 325 317 307
217 228 232 240 244 241 245 250 246 252 259 261 251 273 264 317 372 392 389 380 374 369 368 386 405 396 393 387 377 378 375 372 362 355 369 375 362 370 357 350 339 330 321 308
242 248 250 254 251 253 263 264 271 265 253 257 284 276 360 391 389 374 373 366 370 374 407 397 388 393 407 410 417 399 394 398 393 393 374 368 364 362 359 353 346 339 326 317
255 250 251 264 271 271 268 254 272 263 310 294 389 398 394 379 368 360 366 374 402 395 389 405 403 388 370 363 357 351 346 341 340 340 342 344 352 353 350 351 349 348 339 322
255 248 262 251 250 246 262 282 283 319 388 403 387 376 360 357 362 363 384 395 390 404 390 369 360 354 352 352 353 353 350 343 338 338 339 340 336 331 329 331 336 337 339 334
270 248 252 267 277 273 264 284 379 398 382 367 364 355 364 355 373 391 387 400 383 363 354 352 349 350 358 366 349 361 361 358 355 352 350 349 348 346 344 341 336 333 329 325
250 255 282 285 314 307 336 402 384 369 364 364 352 343 372 383 390 394 381 360 352 348 345 367 375 367 363 359 356 353 351 354 405 399 401 401 396 365 353 347 345 344 341 341

GFSNGP_2pvu_pres_033.txt.gz
Presure
254 230 220 211 212 206 202 202 200 194 200 200 190 189 194 201 206 212 206 196 206 195 192 193 185 190 199 195 198 199 205 219 232 203 197 207 209 211 219 227 234 236 251 254
209 214 208 207 201 199 199 197 196 194 189 193 193 189 189 196 195 192 205 201 198 193 191 191 190 185 187 193 197 205 214 230 203 199 206 206 214 218 225 232 237 256 212 266
212 210 199 202 204 198 198 199 192 192 192 191 188 196 198 197 198 196 200 207 189 188 188 191 185 193 193 194 202 216 231 201 195 202 208 204 217 227 235 242 254 252 246 219
210 201 200 206 201 197 196 196 197 189 190 186 190 192 192 193 199 200 205 193 186 187 187 191 192 193 198 202 223 213 200 203 204 207 208 213 230 235 241 253 252 247 246 257
203 203 201 197 200 197 192 194 188 190 192 195 198 198 197 196 201 206 189 183 188 192 189 191 191 198 203 227 197 200 199 205 203 206 218 233 234 240 261 247 260 245 238 256
197 194 193 195 195 193 193 195 191 195 199 200 201 200 207 211 211 199 179 186 191 190 189 191 196 204 227 194 203 203 201 212 214 224 235 237 245 260 247 238 237 265 266 265
194 195 197 196 196 194 193 158 194 201 201 205 208 209 217 218 197 182 193 189 190 187 190 199 202 222 200 204 201 205 210 216 233 230 242 244 252 236 245 257 251 254 268 250
197 197 199 197 199 135 173 199 202 204 206 202 207 189 190 193 190 191 190 187 190 196 194 200 220 201 200 200 206 212 222 236 235 237 241 256 242 237 251 258 262 257 262 270
200 131 189 201 203 206 200 119 204 203 203 199 189 185 194 196 189 191 186 193 193 194 200 220 204 201 202 210 217 228 239 238 238 236 246 245 257 249 257 271 288 276 290 322
203 204 211 214 183 198 190 191 198 197 187 185 179 197 195 198 187 197 199 205 203 211 234 204 204 204 216 215 235 237 237 253 242 242 245 252 269 264 267 262 264 269 322 321
198 207 197 192 195 193 199 190 199 194 185 197 203 204 199 191 200 203 204 210 224 209 207 208 213 216 217 235 239 241 253 244 268 242 251 246 253 264 279 301 321 325 348 374
194 196 193 198 198 196 199 187 195 202 202 204 202 194 198 203 205 208 220 230 208 211 214 212 220 226 241 249 251 245 270 259 261 261 245 254 272 275 318 330 338 358 383 385
196 199 199 197 200 204 192 191 198 201 203 196 195 203 200 208 211 222 209 208 212 219 209 224 238 243 242 247 265 250 252 270 260 274 267 299 317 339 279 354 363 378 409 410
196 186 202 204 203 191 190 202 201 203 200 202 199 201 211 215 233 210 210 217 215 217 234 240 250 250 251 251 244 250 251 253 255 331 342 332 277 359 369 396 374 401 401 383
200 199 198 194 199 206 210 202 198 202 208 210 211 214 234 221 206 218 217 213 230 245 249 251 246 256 247 270 259 272 259 268 342 306 349 357 369 380 363 406 410 396 382 379
185 200 206 214 209 201 200 203 204 214 217 222 241 223 210 216 217 218 227 245 245 251 249 254 259 254 254 274 265 278 294 360 369 377 390 370 375 400 398 388 385 388 365 368
208 214 206 200 202 203 211 213 211 221 243 211 214 215 216 224 227 237 246 241 249 256 265 271 268 256 264 278 262 280 381 382 373 368 377 406 404 376 364 374 376 364 363 359
195 202 202 205 212 213 217 232 238 191 215 216 204 220 228 239 241 246 250 252 266 270 260 267 276 268 313 387 379 351 377 386 407 400 391 390 380 370 371 379 372 368 361 358
211 214 210 215 220 235 227 197 217 213 213 224 228 237 239 247 252 256 265 257 254 259 277 405 365 256 382 372 369 383 405 401 391 383 387 383 378 372 367 355 354 367 361 353
215 217 221 232 233 209 219 213 216 223 229 233 233 251 247 260 251 260 263 262 264 296 286 374 377 369 365 371 394 396 390 396 411 414 412 414 398 387 389 366 375 370 369 357
220 234 216 215 215 208 218 225 229 231 235 259 255 249 261 262 250 262 261 323 282 278 375 369 370 371 377 400 397 407 400 378 365 354 351 350 348 348 389 379 369 372 358 353
208 215 214 210 221 226 230 238 239 264 258 251 258 270 256 258 263 262 324 389 381 372 366 351 368 391 399 405 395 372 358 356 353 348 346 347 346 343 341 338 336 338 347 347
214 219 224 225 235 241 255 262 255 254 263 271 270 268 259 272 322 397 385 373 364 353 356 384 400 395 389 370 359 355 353 351 351 364 364 362 350 341 341 341 338 333 329 324
231 242 239 253 256 259 252 255 269 271 253 261 261 296 316 348 394 378 373 356 343 374 395 398 380 360 356 354 350 352 382 377 374 369 364 358 356 353 350 347 345 342 342 340
251 251 262 253 249 257 265 249 255 257 294 282 319 308 359 395 376 363 354 344 379 397 390 359 364 408 399 394 390 386 384 372 363 360 357 354 353 362 362 359 357 355 351 345
266 254 249 248 268 270 254 255 274 288 303 305 316 351 396 378 366 354 350 385 395 385 355 330 400 392 383 374 364 360 395 438 430 423 414 403 391 381 377 357 325 324 328 333
254 250 258 259 257 251 251 289 302 309 321 320 347 392 385 366 361 361 387 393 369 363 325 326 381 376 430 436 425 415 401 387 369 354 343 338 337 338 339 330 324 328 342 349

GFSNGP_2pvu_pres_036.txt.gz
Presure
216 215 214 214 211 211 212 233 213 215 206 200 195 188 193 199 193 197 197 196 196 204 202 204 207 206 192 187 184 188 191 194 194 198 206 230 200 208 204 207 214 217 238 239
212 210 210 202 213 236 226 219 213 200 198 199 197 191 191 191 193 187 189 191 196 197 200 204 201 192 189 184 191 191 191 192 194 206 205 210 205 201 206 213 217 239 237 242
208 209 203 205 232 224 212 213 203 198 197 198 198 197 195 196 193 190 196 201 202 199 204 205 198 189 183 182 188 191 186 194 203 203 227 213 202 200 212 217 241 240 250 249
207 200 211 215 223 213 202 207 204 192 193 197 197 193 193 191 193 198 199 200 202 209 212 200 192 181 186 192 192 191 196 203 203 224 226 203 204 215 217 238 244 254 266 253
202 205 209 214 213 201 201 199 190 196 196 194 191 192 198 197 197 195 203 203 202 191 192 193 186 191 193 192 193 201 204 208 230 215 206 209 216 218 245 252 252 246 242 255
207 201 195 197 198 196 192 194 193 191 89 196 197 199 202 206 209 208 209 183 183 190 198 199 193 197 189 200 204 203 218 230 206 210 213 220 230 243 247 254 241 242 248 248
203 195 196 196 198 192 196 200 186 196 198 202 204 207 200 209 207 195 191 193 178 195 200 202 198 192 201 206 204 223 222 206 211 218 215 232 243 253 252 248 262 258 254 258
204 198 195 200 127 196 198 199 201 200 200 203 201 191 196 195 204 197 187 190 198 198 186 196 192 199 204 205 223 215 207 216 217 220 239 247 249 259 260 252 262 272 273 259
202 202 201 187 199 199 196 201 200 201 194 191 188 199 193 201 182 192 198 201 197 197 194 195 202 204 212 233 212 208 221 210 233 249 250 250 262 260 262 252 262 260 274 339
199 199 198 198 197 195 201 198 201 189 185 191 197 198 191 182 193 191 196 199 195 194 204 202 207 214 238 203 216 223 229 240 249 251 260 265 259 256 268 264 257 295 277 338
198 202 206 204 195 198 196 191 192 192 188 198 196 190 188 189 196 201 194 196 204 205 207 218 235 221 211 223 224 238 249 252 258 264 261 257 270 270 263 271 274 318 348 361
171 200 203 201 198 191 189 191 192 197 199 200 193 183 192 201 199 192 203 204 208 216 237 227 213 218 226 233 241 251 252 268 264 250 256 260 266 278 338 345 361 366 391 385
207 208 202 200 197 197 193 180 200 196 185 188 194 203 193 195 203 204 209 206 224 242 214 216 225 231 241 249 256 255 250 269 260 270 267 273 295 386 381 401 371 367 365 404
210 207 204 205 192 194 198 198 186 186 206 199 203 199 203 198 208 211 224 245 215 215 223 228 234 239 262 250 258 267 268 252 267 276 331 404 392 379 382 370 407 391 390 398
208 206 204 196 201 200 199 196 206 203 208 193 202 197 210 211 219 190 226 218 215 227 232 242 240 260 249 252 279 271 257 270 337 331 383 329 367 380 397 399 395 385 380 379
192 190 199 200 200 198 205 207 209 203 202 193 214 211 215 218 235 222 216 225 226 236 244 253 261 259 272 272 262 259 284 392 383 383 385 387 410 403 394 384 381 379 374 368
200 201 202 199 208 210 210 200 203 192 213 214 214 219 218 242 214 224 226 232 241 250 260 254 266 266 263 261 281 289 385 380 358 382 389 397 395 413 406 407 413 417 395 375
206 205 210 213 203 200 202 194 212 212 213 216 218 244 219 218 225 230 236 242 261 254 260 271 269 256 273 401 389 381 367 354 384 391 393 399 397 381 366 357 352 353 378 386
213 208 206 217 196 203 216 213 213 219 209 234 227 219 218 230 234 247 252 251 259 260 246 265 257 300 396 384 377 363 360 388 404 392 381 375 359 350 349 349 344 341 338 336
206 197 210 213 213 212 213 216 222 222 245 215 223 225 234 243 244 259 251 256 263 259 270 260 333 393 386 376 366 361 398 403 376 359 352 349 346 345 342 341 343 345 341 339
214 211 209 213 222 223 222 224 246 216 226 227 232 240 245 245 263 256 261 266 272 264 263 332 374 393 379 377 367 417 396 365 347 411 405 402 394 381 373 371 368 365 360 353
213 222 222 221 223 232 247 213 226 228 232 238 237 244 262 262 254 257 268 259 258 279 329 375 395 385 380 371 407 395 369 339 320 391 388 386 384 380 373 363 355 351 347 348
227 229 232 244 226 220 225 233 235 237 237 249 253 269 267 244 251 271 249 260 306 334 353 398 389 385 380 400 395 364 389 319 363 382 374 367 360 356 354 352 350 356 347 342
216 219 225 227 231 239 237 233 239 246 255 263 268 252 267 266 262 263 262 322 335 353 399 390 387 389 398 389 365 404 334 332 376 431 421 425 426 424 426 422 421 430 426 416
231 231 236 244 241 237 248 249 257 257 261 265 264 265 256 279 263 315 328 338 380 399 394 390 395 392 378 391 420 390 325 399 411 389 376 365 359 352 351 346 340 336 332 329
249 249 244 245 250 255 260 257 263 261 255 262 261 269 262 286 318 330 345 404 399 395 388 391 384 370 419 412 387 362 435 403 376 360 351 345 343 342 340 338 335 335 333 328
248 250 257 258 257 255 258 257 264 266 273 273 270 282 310 335 344 376 402 399 390 388 387 377 370 408 387 367 362 430 398 371 355 348 351 353 352 347 345 347 346 349 352 359

GFSNGP_2pvu_pres_039.txt.gz
Presure
213 208 209 207 203 205 210 219 214 217 209 204 227 219 205 205 201 204 198 206 195 188 193 197 201 203 207 209 214 213 203 195 192 190 193 193 196 199 208 220 230 208 212 220
207 208 207 213 220 222 215 214 205 210 223 233 214 200 195 198 204 193 195 190 190 193 197 201 196 208 214 206 193 194 191 187 197 199 194 196 205 213 220 235 209 218 220 221
208 220 217 213 209 208 207 209 221 237 217 206 207 203 192 190 198 200 194 194 198 199 204 207 210 202 191 188 187 188 195 199 201 201 200 208 213 220 230 205 222 217 237 253
220 205 205 205 208 198 211 228 232 212 208 204 196 197 198 196 193 194 195 196 200 204 207 208 197 193 193 197 192 198 204 197 204 205 204 210 224 225 206 224 230 251 253 276
206 205 203 201 198 208 199 206 203 206 198 197 197 108 197 199 199 199 201 204 191 193 196 202 195 186 187 196 204 200 204 202 209 210 216 239 216 215 224 241 247 261 259 258
206 202 203 200 205 216 196 195 198 199 195 199 199 198 198 197 201 203 198 188 197 205 197 187 188 202 197 200 202 197 207 208 212 238 228 211 216 229 240 254 254 260 265 253
201 202 204 197 209 206 197 200 199 198 197 196 187 200 202 200 207 189 195 194 201 191 189 191 193 194 200 193 200 205 205 212 239 215 213 220 236 238 257 248 263 275 250 264
199 204 200 193 199 204 201 198 200 198 197 197 197 200 204 210 189 192 194 199 193 190 184 196 195 198 191 204 206 209 228 235 211 215 230 240 243 258 266 264 254 264 266 271
205 204 166 190 112 197 199 202 202 198 196 199 199 200 192 197 198 190 195 195 190 181 193 196 195 206 203 209 215 242 217 214 223 234 242 250 265 268 258 261 273 275 275 370
208 204 198 186 192 193 198 201 201 198 199 196 201 201 193 189 191 193 185 183 189 193 196 203 203 205 213 216 231 217 217 232 234 247 258 262 277 252 260 272 285 308 400 402
211 207 199 199 198 197 199 197 198 201 198 201 200 194 183 197 193 180 184 198 200 196 203 201 211 212 221 232 217 226 233 238 254 263 263 277 252 264 267 375 420 389 375 369
213 209 206 201 200 200 200 198 195 198 201 204 191 190 198 190 192 193 200 195 204 200 206 213 213 223 234 217 229 233 244 261 249 265 275 255 262 268 398 387 373 360 357 388
206 212 207 201 204 207 208 202 202 193 208 199 196 199 194 202 203 204 188 207 202 211 213 212 235 219 220 231 229 242 256 265 264 274 253 265 362 402 388 362 357 378 387 390
207 202 207 207 205 201 199 202 210 205 191 196 200 202 198 211 191 204 200 206 214 214 218 242 221 225 235 241 245 258 265 263 273 249 268 306 404 387 367 378 400 389 380 391
212 206 196 198 195 192 196 192 191 196 201 201 202 210 200 203 202 204 215 214 214 222 245 226 228 236 242 246 259 268 263 279 261 268 352 407 393 375 383 408 398 377 379 371
211 211 206 204 207 206 205 202 202 203 204 205 215 201 204 205 214 214 210 222 225 234 229 229 238 241 244 261 270 265 277 267 270 324 408 394 379 386 413 391 366 354 348 347
206 202 202 208 203 199 202 203 198 192 214 203 201 204 215 211 215 224 224 234 227 232 229 240 238 248 265 269 276 270 266 271 345 411 400 386 380 404 387 360 343 451 378 342
203 204 202 202 202 203 202 198 214 205 215 213 213 207 214 219 224 227 222 228 234 231 239 242 253 261 269 270 268 267 275 319 415 405 394 390 397 391 365 336 314 403 420 413
203 202 202 207 209 212 213 204 213 203 213 212 214 221 225 227 243 234 230 237 233 239 251 252 255 268 273 275 274 277 346 418 411 398 400 399 389 364 362 332 359 376 387 379
214 214 208 205 204 199 216 210 215 212 219 223 227 227 242 238 227 234 236 237 242 257 254 259 275 272 280 283 280 349 416 411 401 403 398 382 370 416 350 340 382 374 362 351
203 200 204 217 220 217 216 212 223 224 229 226 231 252 228 233 230 243 240 252 252 255 245 287 268 279 283 275 393 420 413 406 401 391 385 427 413 398 383 409 433 439 443 431
221 220 218 219 218 221 225 231 229 215 236 244 227 233 233 244 243 251 247 252 255 265 285 268 275 280 300 428 422 413 404 402 385 418 417 399 384 372 428 399 383 376 396 425
223 224 224 226 233 233 218 238 254 235 228 236 235 244 243 250 256 248 254 253 262 277 266 289 279 281 428 418 408 403 396 385 366 393 388 372 364 418 393 370 356 346 340 342
235 250 261 223 205 225 229 231 236 240 237 239 253 255 244 257 249 255 255 267 274 291 300 280 345 423 413 402 401 391 386 408 388 378 372 392 410 387 368 355 348 345 345 344
207 224 227 227 231 236 241 240 240 248 254 257 251 259 250 257 256 269 269 287 297 295 287 424 416 407 401 395 386 421 393 385 467 454 425 396 374 359 353 355 357 356 354 350
227 236 241 245 243 243 249 252 256 261 250 251 253 261 259 261 268 279 307 303 285 323 415 408 404 394 393 409 402 387 471 450 420 393 374 359 369 392 579 565 547 532 507 455
246 244 247 252 256 261 264 263 248 251 257 267 267 264 269 279 300 311 289 292 403 404 403 395 388 427 430 395 386 462 430 395 375 359 376 382 519 521 556 563 544 528 514 497

GFSNGP_2pvu_pres_042.txt.gz
Presure
247 256 214 247 206 209 213 211 207 213 215 217 207 205 203 225 229 227 211 197 194 199 193 191 190 189 190 196 202 206 203 196 195 196 191 192 201 207 204 206 211 215 240 213
215 213 206 208 214 213 207 212 221 221 207 210 202 209 211 231 222 206 193 192 195 195 190 191 194 199 210 204 199 205 200 201 199 194 205 202 203 201 211 212 241 229 212 218
206 218 210 211 212 216 220 213 206 206 206 208 216 240 227 208 202 197 195 195 196 193 197 204 212 202 191 201 202 194 191 190 201 200 203 196 208 212 220 235 216 218 227 249
217 223 214 209 223 209 201 206 200 206 208 255 239 226 201 194 195 194 195 195 198 200 202 205 209 195 192 195 189 193 181 201 202 204 209 208 215 220 236 216 221 242 253 254
215 213 213 218 217 211 202 198 199 209 231 201 202 198 200 197 196 194 198 200 201 203 207 187 191 194 196 194 194 182 201 193 208 204 213 209 220 236 214 232 234 249 258 260
209 217 214 218 214 207 200 197 206 214 203 198 200 201 200 198 198 198 200 199 200 205 216 191 196 200 194 192 185 202 200 209 200 213 206 217 236 212 234 235 247 259 261 258
208 211 211 213 209 205 201 203 172 174 208 200 199 202 200 198 198 200 195 201 204 191 197 189 192 199 182 189 200 198 209 201 208 210 217 235 216 236 237 240 261 264 271 252
206 203 210 203 207 203 201 197 200 199 201 203 200 199 202 200 194 198 199 201 195 194 193 197 198 183 193 199 198 208 203 209 211 222 234 221 236 237 246 265 267 274 262 264
204 200 204 211 194 207 205 198 202 195 195 194 196 199 200 201 202 199 201 201 192 190 195 195 203 197 204 201 206 203 213 210 218 226 224 235 236 247 267 263 273 264 271 273
205 203 204 209 210 207 206 206 200 199 198 197 198 198 198 198 193 204 196 205 197 196 200 200 201 194 205 203 210 213 212 219 225 229 234 235 246 257 270 267 270 276 270 314
207 201 209 204 201 209 209 203 203 201 200 201 201 199 205 201 202 200 206 194 193 201 196 204 192 205 203 215 207 219 218 238 229 234 236 250 255 268 267 273 277 275 366 408
216 205 200 207 212 204 206 205 205 204 204 203 206 206 202 197 207 199 192 192 203 194 210 205 202 213 208 211 219 218 235 231 238 230 253 256 269 272 266 280 274 379 410 400
226 211 211 203 206 214 202 200 202 206 206 206 198 201 193 192 188 192 200 204 206 212 204 203 214 204 217 219 217 228 231 238 235 252 254 261 265 273 280 275 381 414 402 387
229 221 213 210 208 210 210 210 208 199 197 199 195 206 199 195 197 205 193 212 206 203 214 209 212 222 222 231 229 230 239 245 250 255 261 268 269 293 281 353 427 417 395 388
223 229 226 215 211 210 209 210 210 208 205 202 203 199 202 204 208 197 216 205 203 214 208 216 225 221 246 229 231 243 247 248 258 255 271 264 297 287 292 426 420 408 401 391
229 226 228 226 219 215 209 210 208 205 202 204 211 210 209 197 213 210 203 217 213 214 223 226 219 241 230 234 246 246 248 255 255 274 270 299 300 296 427 419 411 403 389 375
224 227 225 228 226 221 216 214 216 204 209 203 204 211 215 210 200 214 216 213 223 225 226 255 234 233 235 249 252 249 257 258 273 276 300 302 306 430 419 406 400 388 395 424
226 229 230 232 230 228 222 208 210 210 211 217 220 212 197 216 224 222 218 227 227 231 253 235 238 244 257 255 255 258 262 271 279 303 297 327 432 416 402 395 382 430 413 396
226 232 223 221 225 229 228 218 207 210 205 206 200 215 223 220 219 224 231 246 231 235 242 240 247 258 253 260 258 264 270 282 304 298 340 429 410 405 395 374 406 402 387 370
224 230 224 215 220 223 224 225 228 227 223 225 227 218 223 225 233 256 228 233 241 246 247 248 259 254 258 256 268 266 287 292 297 409 424 412 400 387 423 402 388 378 369 362
239 234 226 223 221 220 220 222 226 229 226 226 229 229 233 203 228 231 237 244 248 248 251 266 251 262 262 268 275 288 324 303 434 423 411 398 434 404 395 402 450 447 436 416
228 227 226 226 226 225 224 227 225 228 230 227 236 231 230 230 235 243 249 249 248 265 261 257 267 267 272 277 313 303 360 428 414 427 444 414 424 474 451 433 420 409 398 385
223 223 224 226 228 232 232 231 229 229 231 234 235 222 234 241 250 248 255 263 271 257 266 272 269 280 276 293 306 415 419 410 449 428 407 457 442 409 386 370 361 356 356 357
231 229 228 231 233 232 231 231 231 239 234 227 237 241 249 249 255 263 272 257 265 274 274 272 279 289 289 317 420 415 402 413 423 402 466 422 386 369 365 384 541 603 592 572
236 235 232 227 230 247 245 233 232 233 237 241 251 251 254 259 270 264 265 275 275 275 279 281 295 305 427 413 418 392 399 428 401 453 414 369 355 369 371 450 448 579 578 558
246 242 238 230 222 224 236 237 238 245 252 255 259 263 256 268 267 278 277 280 280 278 293 299 338 416 414 407 394 379 405 410 389 378 359 354 366 355 388 447 450 436 512 563
235 236 236 238 242 246 250 252 257 260 264 265 255 264 272 279 280 271 277 276 290 287 314 372 408 415 391 384 381 403 392 396 382 362 353 356 361 345 380 419 425 441 425 494

GFSNGP_2pvu_pres_045.txt.gz
Presure
288 234 248 250 235 218 214 215 206 212 208 201 198 203 208 210 210 214 207 227 217 213 204 195 195 191 195 199 189 192 195 201 207 183 185 190 194 183 192 201 212 199 212 214
277 271 266 214 258 211 207 211 210 208 208 218 216 209 209 209 205 206 236 224 215 202 194 193 195 199 196 192 193 199 200 199 194 197 195 196 196 194 203 210 201 212 211 234
262 259 257 199 223 216 215 213 208 218 219 216 209 206 205 207 242 241 221 207 205 200 196 199 197 197 196 197 198 210 192 190 192 197 193 182 200 200 210 202 216 206 227 222
191 247 224 214 221 222 218 205 219 209 210 206 209 202 208 251 234 217 206 201 202 200 198 197 194 196 200 206 206 196 196 199 197 203 187 204 202 208 204 215 207 222 226 236
266 247 220 210 217 213 214 212 214 210 210 209 207 204 212 200 199 201 200 202 200 199 199 197 199 200 202 201 195 197 189 200 204 200 203 203 205 210 213 211 219 227 233 233
269 243 211 220 211 215 216 211 215 214 210 206 206 203 216 207 200 201 203 203 202 198 201 193 197 200 202 194 197 191 200 203 198 202 213 201 216 205 221 219 224 229 237 242
264 244 214 213 213 206 211 214 216 211 209 205 148 204 201 205 207 206 203 200 200 200 198 202 202 202 210 198 203 198 204 196 197 207 199 214 204 220 219 230 225 235 246 243
252 243 223 212 211 211 208 214 216 167 208 204 201 204 202 199 198 199 199 200 197 195 206 202 204 209 201 204 196 205 196 207 205 204 212 206 219 218 232 225 235 241 243 249
246 205 231 222 210 209 208 207 211 213 204 204 205 205 202 201 200 201 202 203 198 204 203 194 203 198 201 198 205 194 209 201 211 205 210 222 217 232 225 235 241 249 249 256
241 200 224 225 212 216 204 205 205 208 209 211 211 209 206 204 203 205 205 202 202 201 197 195 195 193 204 204 193 212 196 212 205 213 223 216 234 226 233 246 251 250 252 264
243 227 198 230 223 214 211 206 208 210 212 209 208 208 209 209 208 209 204 203 200 202 192 197 196 205 197 200 211 189 214 206 217 224 217 231 227 236 256 253 255 256 264 275
201 238 222 229 226 217 213 213 207 203 201 205 214 214 209 208 206 201 200 199 202 199 201 203 204 211 206 208 202 216 210 221 227 235 228 232 238 258 251 249 256 260 274 316
188 226 232 227 224 225 222 217 214 211 210 210 207 205 210 210 209 204 203 204 203 202 205 210 200 210 199 215 223 217 223 229 249 223 242 243 254 256 251 261 258 269 303 304
236 228 232 196 221 223 217 218 222 216 213 210 206 210 203 204 209 207 207 204 203 208 209 205 214 196 225 223 219 225 234 223 234 248 245 256 260 255 270 273 278 293 320 442
241 235 233 224 212 217 224 228 224 224 226 228 224 206 217 218 211 206 209 210 214 209 217 211 209 223 220 223 230 229 226 242 248 247 259 262 259 273 274 282 292 334 443 422
229 231 226 204 216 215 223 232 227 223 223 225 227 227 226 225 223 207 214 207 204 211 213 224 224 226 227 236 228 230 246 248 249 269 260 267 272 275 281 299 403 435 420 414
228 232 231 227 227 228 217 217 222 223 226 229 225 222 226 229 231 228 230 228 224 227 231 223 228 230 263 230 233 248 237 256 269 256 274 275 279 281 307 452 434 421 466 448
242 239 236 235 231 240 213 218 223 223 224 230 222 219 222 224 225 226 224 225 230 222 228 228 233 239 233 239 249 246 255 272 262 277 276 281 290 311 446 425 456 441 421 436
242 246 247 246 241 227 221 219 220 222 224 233 227 226 224 223 223 226 228 229 226 228 230 238 237 236 243 249 252 253 270 267 280 276 282 292 321 442 422 452 430 457 462 428
236 238 242 243 242 215 225 225 224 226 234 233 224 223 225 228 232 234 231 232 230 229 248 237 236 241 251 254 255 265 274 280 275 284 292 340 447 421 443 424 472 427 391 372
227 235 248 214 249 232 224 224 225 231 227 227 222 226 227 229 228 229 231 232 250 238 238 238 245 253 258 256 266 276 282 275 283 291 341 434 423 396 425 433 420 375 358 366
250 251 258 256 251 237 235 225 232 231 227 228 229 233 231 234 236 234 249 244 237 239 241 252 258 263 258 266 282 285 279 283 294 340 429 413 393 428 410 397 372 360 372 359
249 242 233 231 225 231 238 238 236 235 232 233 235 239 243 250 251 226 237 241 243 251 259 265 264 265 277 288 281 279 292 304 349 425 403 402 398 412 399 387 366 355 369 355
244 238 242 242 241 238 235 234 237 239 253 260 252 239 233 234 240 243 248 253 263 268 265 277 286 290 281 282 286 295 316 350 420 402 401 394 404 385 389 380 361 358 365 359
238 244 246 237 235 237 238 241 234 226 233 234 235 238 242 247 252 262 265 263 263 284 288 286 274 282 280 295 304 323 424 410 396 397 388 483 459 373 364 375 355 354 359 393
247 236 230 224 222 225 231 235 238 242 244 246 248 254 261 265 258 252 252 267 281 279 276 277 285 310 314 316 345 415 402 387 392 379 491 474 447 386 362 366 347 355 354 395
235 235 236 236 236 239 243 246 248 253 260 264 265 263 249 249 262 274 287 290 282 283 294 305 317 318 348 410 406 387 390 378 380 368 381 379 446 412 377 362 343 363 349 415